Location: Belvedere Heights
(33.9836°N, 117.3109°W)
Time: 13:30:41
(UTC+00:00)

Atlas Centaur 2 - Pass Details

Date: 13 December 2023
Orbit: 458 x 1281 km, 30.4° (Epoch: 25 February)

Event Time Altitude Azimuth Distance (km) Brightness Sun altitude
Exits shadow 14:02:35 - 260° (W) 1,739 3.4 -9.0°
Reaches altitude 10° 14:02:56 10° 258° (WSW) 1,608 3.2 -8.9°
Maximum altitude 14:06:12 34° 192° (SSW) 770 2.2 -8.3°
Drops below altitude 10° 14:09:29 10° 126° (SE) 1,608 5.3 -7.6°
Sets 14:11:49 0° 116° (ESE) 2,533 7.4 -7.2°
